Time,TemperatureF,DewpointF,PressureIn,WindDirection,WindDirectionDegrees,WindSpeedMPH,WindSpeedGustMPH,Humidity,HourlyPrecipIn,Conditions,Clouds,dailyrainin,SoftwareType,DateUTC
2013-07-18 00:00:00,77.9,70.9,30.07,WNW,287,0.0,0.0,79,0.00,,,0.00,Wunderground v.1.15,2013-07-18 04:00:00,
2013-07-18 00:05:00,77.7,70.7,30.07,WNW,287,0.0,0.0,79,0.00,,,0.00,Wunderground v.1.15,2013-07-18 04:05:00,
2013-07-18 00:15:00,77.6,70.9,30.07,WNW,287,0.0,0.0,80,0.00,,,0.00,Wunderground v.1.15,2013-07-18 04:15:00,
2013-07-18 00:20:00,77.4,70.7,30.07,WNW,287,0.0,0.0,80,0.00,,,0.00,Wunderground v.1.15,2013-07-18 04:20:00,
2013-07-18 00:25:00,77.4,70.7,30.07,WNW,287,0.0,0.0,80,0.00,,,0.00,Wunderground v.1.15,2013-07-18 04:25:00,
2013-07-18 00:30:00,77.2,70.5,30.07,WNW,287,0.0,0.0,80,0.00,,,0.00,Wunderground v.1.15,2013-07-18 04:30:00,
2013-07-18 00:40:00,77.2,70.9,30.07,WNW,287,0.0,0.0,81,0.00,,,0.00,Wunderground v.1.15,2013-07-18 04:40:00,
2013-07-18 00:45:00,77.0,70.7,30.06,WNW,287,0.0,0.0,81,0.00,,,0.00,Wunderground v.1.15,2013-07-18 04:45:00,
2013-07-18 00:50:00,77.0,71.1,30.06,WNW,287,0.0,0.0,82,0.00,,,0.00,Wunderground v.1.15,2013-07-18 04:50:00,
2013-07-18 00:55:00,76.8,70.9,30.06,WNW,287,0.0,0.0,82,0.00,,,0.00,Wunderground v.1.15,2013-07-18 04:55:00,
2013-07-18 01:00:00,76.8,71.2,30.07,WNW,287,0.0,0.0,83,0.00,,,0.00,Wunderground v.1.15,2013-07-18 05:00:00,
2013-07-18 01:05:00,76.8,71.2,30.07,WNW,287,0.0,0.0,83,0.00,,,0.00,Wunderground v.1.15,2013-07-18 05:05:00,
2013-07-18 01:15:00,76.7,71.5,30.06,WNW,287,0.0,0.0,84,0.00,,,0.00,Wunderground v.1.15,2013-07-18 05:15:00,
2013-07-18 01:20:00,76.7,71.5,30.06,WNW,287,0.0,0.0,84,0.00,,,0.00,Wunderground v.1.15,2013-07-18 05:20:00,
2013-07-18 01:25:00,76.5,71.3,30.06,WNW,287,0.0,0.0,84,0.00,,,0.00,Wunderground v.1.15,2013-07-18 05:25:00,
2013-07-18 01:35:00,76.5,71.7,30.06,WNW,287,0.0,0.0,85,0.00,,,0.00,Wunderground v.1.15,2013-07-18 05:35:00,
2013-07-18 01:40:00,76.3,71.5,30.06,WNW,287,0.0,0.0,85,0.00,,,0.00,Wunderground v.1.15,2013-07-18 05:40:00,
2013-07-18 01:45:00,76.3,71.5,30.06,WNW,287,0.0,0.0,85,0.00,,,0.00,Wunderground v.1.15,2013-07-18 05:45:00,
2013-07-18 01:55:00,76.1,71.3,30.06,WNW,287,0.0,0.0,85,0.00,,,0.00,Wunderground v.1.15,2013-07-18 05:55:00,
2013-07-18 02:00:00,76.1,71.3,30.06,WNW,287,0.0,0.0,85,0.00,,,0.00,Wunderground v.1.15,2013-07-18 06:00:00,
2013-07-18 02:05:00,76.0,71.2,30.06,WNW,287,0.0,0.0,85,0.00,,,0.00,Wunderground v.1.15,2013-07-18 06:05:00,
2013-07-18 02:15:00,76.0,71.2,30.05,WNW,287,0.0,0.0,85,0.00,,,0.00,Wunderground v.1.15,2013-07-18 06:15:00,
2013-07-18 02:20:00,75.8,71.0,30.05,WNW,287,0.0,0.0,85,0.00,,,0.00,Wunderground v.1.15,2013-07-18 06:20:00,
2013-07-18 02:30:00,75.6,70.8,30.05,WNW,287,0.0,0.0,85,0.00,,,0.00,Wunderground v.1.15,2013-07-18 06:30:00,
2013-07-18 02:35:00,75.6,70.8,30.05,WNW,287,0.0,0.0,85,0.00,,,0.00,Wunderground v.1.15,2013-07-18 06:35:00,
2013-07-18 02:40:00,75.4,70.6,30.05,WNW,287,0.0,0.0,85,0.00,,,0.00,Wunderground v.1.15,2013-07-18 06:40:00,
2013-07-18 02:50:00,75.4,70.6,30.04,WNW,287,0.0,0.0,85,0.00,,,0.00,Wunderground v.1.15,2013-07-18 06:50:00,
2013-07-18 02:55:00,75.3,70.5,30.04,WNW,287,0.0,0.0,85,0.00,,,0.00,Wunderground v.1.15,2013-07-18 06:55:00,
2013-07-18 03:00:00,75.3,70.1,30.04,WNW,287,0.0,0.0,84,0.00,,,0.00,Wunderground v.1.15,2013-07-18 07:00:00,
2013-07-18 03:05:00,75.3,70.1,30.04,WNW,287,0.0,0.0,84,0.00,,,0.00,Wunderground v.1.15,2013-07-18 07:05:00,
2013-07-18 03:15:00,75.3,70.1,30.04,WNW,287,0.0,0.0,84,0.00,,,0.00,Wunderground v.1.15,2013-07-18 07:15:00,
2013-07-18 03:25:00,75.1,69.9,30.04,WNW,287,0.0,0.0,84,0.00,,,0.00,Wunderground v.1.15,2013-07-18 07:25:00,
2013-07-18 03:30:00,75.1,69.6,30.04,WNW,287,0.0,0.0,83,0.00,,,0.00,Wunderground v.1.15,2013-07-18 07:30:00,
2013-07-18 03:35:00,75.1,69.6,30.04,WNW,287,0.0,0.0,83,0.00,,,0.00,Wunderground v.1.15,2013-07-18 07:35:00,
2013-07-18 03:40:00,75.1,69.6,30.04,WNW,287,0.0,0.0,83,0.00,,,0.00,Wunderground v.1.15,2013-07-18 07:40:00,
2013-07-18 03:50:00,75.1,69.6,30.03,WNW,287,0.0,0.0,83,0.00,,,0.00,Wunderground v.1.15,2013-07-18 07:50:00,
2013-07-18 03:55:00,75.3,69.8,30.03,WNW,287,0.0,0.0,83,0.00,,,0.00,Wunderground v.1.15,2013-07-18 07:55:00,
2013-07-18 04:00:00,75.3,69.8,30.03,WNW,287,0.0,0.0,83,0.00,,,0.00,Wunderground v.1.15,2013-07-18 08:00:00,
2013-07-18 04:05:00,75.4,69.9,30.03,WNW,287,0.0,0.0,83,0.00,,,0.00,Wunderground v.1.15,2013-07-18 08:05:00,
2013-07-18 04:15:00,75.4,69.5,30.03,WNW,287,0.0,0.0,82,0.00,,,0.00,Wunderground v.1.15,2013-07-18 08:15:00,
2013-07-18 04:25:00,75.4,69.5,30.03,WNW,287,0.0,0.0,82,0.00,,,0.00,Wunderground v.1.15,2013-07-18 08:25:00,
2013-07-18 04:30:00,75.4,69.9,30.03,WNW,287,0.0,0.0,83,0.00,,,0.00,Wunderground v.1.15,2013-07-18 08:30:00,
2013-07-18 04:35:00,75.4,69.9,30.03,WNW,287,0.0,0.0,83,0.00,,,0.00,Wunderground v.1.15,2013-07-18 08:35:00,
2013-07-18 04:45:00,75.4,69.9,30.03,WNW,287,0.0,0.0,83,0.00,,,0.00,Wunderground v.1.15,2013-07-18 08:45:00,
2013-07-18 04:50:00,75.3,69.8,30.03,WNW,287,0.0,0.0,83,0.00,,,0.00,Wunderground v.1.15,2013-07-18 08:50:00,
2013-07-18 04:55:00,75.3,69.8,30.03,WNW,287,0.0,0.0,83,0.00,,,0.00,Wunderground v.1.15,2013-07-18 08:55:00,
2013-07-18 05:05:00,75.1,69.9,30.03,WNW,287,0.0,0.0,84,0.00,,,0.00,Wunderground v.1.15,2013-07-18 09:05:00,
2013-07-18 05:15:00,74.9,69.7,30.03,WNW,287,0.0,0.0,84,0.00,,,0.00,Wunderground v.1.15,2013-07-18 09:15:00,
2013-07-18 05:20:00,74.7,69.9,30.03,WNW,287,0.0,0.0,85,0.00,,,0.00,Wunderground v.1.15,2013-07-18 09:20:00,
2013-07-18 05:25:00,74.6,69.8,30.03,WNW,287,0.0,0.0,85,0.00,,,0.00,Wunderground v.1.15,2013-07-18 09:25:00,
2013-07-18 05:30:00,74.4,69.6,30.02,WNW,287,0.0,0.0,85,0.00,,,0.00,Wunderground v.1.15,2013-07-18 09:30:00,
2013-07-18 05:35:00,74.4,69.9,30.02,WNW,287,0.0,0.0,86,0.00,,,0.00,Wunderground v.1.15,2013-07-18 09:35:00,
2013-07-18 05:45:00,74.2,69.7,30.02,WNW,287,0.0,0.0,86,0.00,,,0.00,Wunderground v.1.15,2013-07-18 09:45:00,
2013-07-18 05:50:00,74.0,69.5,30.02,WNW,287,0.0,0.0,86,0.00,,,0.00,Wunderground v.1.15,2013-07-18 09:50:00,
2013-07-18 05:55:00,74.0,69.9,30.02,WNW,287,0.0,0.0,87,0.00,,,0.00,Wunderground v.1.15,2013-07-18 09:55:00,
2013-07-18 06:05:00,73.9,70.1,30.02,WNW,287,0.0,0.0,88,0.00,,,0.00,Wunderground v.1.15,2013-07-18 10:05:00,
2013-07-18 06:15:00,74.2,70.4,30.03,WNW,287,0.0,0.0,88,0.00,,,0.00,Wunderground v.1.15,2013-07-18 10:15:00,
2013-07-18 06:20:00,74.4,70.6,30.03,WNW,287,0.0,0.0,88,0.00,,,0.00,Wunderground v.1.15,2013-07-18 10:20:00,
2013-07-18 06:25:00,74.4,70.6,30.03,WNW,287,0.0,0.0,88,0.00,,,0.00,Wunderground v.1.15,2013-07-18 10:25:00,
2013-07-18 06:30:00,74.4,70.6,30.03,WNW,287,0.0,0.0,88,0.00,,,0.00,Wunderground v.1.15,2013-07-18 10:30:00,
2013-07-18 06:40:00,74.4,70.6,30.03,WNW,287,0.0,0.0,88,0.00,,,0.00,Wunderground v.1.15,2013-07-18 10:40:00,
2013-07-18 06:45:00,74.4,70.6,30.03,WNW,287,0.0,0.0,88,0.00,,,0.00,Wunderground v.1.15,2013-07-18 10:45:00,
2013-07-18 06:50:00,74.4,70.6,30.03,WNW,287,0.0,0.0,88,0.00,,,0.00,Wunderground v.1.15,2013-07-18 10:50:00,
2013-07-18 06:55:00,74.4,70.6,30.03,WNW,287,0.0,0.0,88,0.00,,,0.00,Wunderground v.1.15,2013-07-18 10:55:00,
2013-07-18 07:05:00,74.4,70.9,30.03,WNW,287,0.0,0.0,89,0.00,,,0.00,Wunderground v.1.15,2013-07-18 11:05:00,
2013-07-18 07:15:00,74.6,71.1,30.03,WNW,287,0.0,0.0,89,0.00,,,0.00,Wunderground v.1.15,2013-07-18 11:15:00,
2013-07-18 07:20:00,74.7,71.2,30.03,WNW,287,0.0,0.0,89,0.00,,,0.00,Wunderground v.1.15,2013-07-18 11:20:00,
2013-07-18 07:25:00,74.9,71.4,30.03,WNW,287,0.0,0.0,89,0.00,,,0.00,Wunderground v.1.15,2013-07-18 11:25:00,
2013-07-18 07:30:00,75.1,71.6,30.03,WNW,287,0.0,0.0,89,0.00,,,0.00,Wunderground v.1.15,2013-07-18 11:30:00,
2013-07-18 07:40:00,75.4,71.6,30.03,WNW,287,0.0,0.0,88,0.00,,,0.00,Wunderground v.1.15,2013-07-18 11:40:00,
2013-07-18 07:45:00,75.6,71.8,30.02,WNW,287,0.0,0.0,88,0.00,,,0.00,Wunderground v.1.15,2013-07-18 11:45:00,
2013-07-18 07:50:00,76.0,71.8,30.02,WNW,287,0.0,0.0,87,0.00,,,0.00,Wunderground v.1.15,2013-07-18 11:50:00,
2013-07-18 08:00:00,76.7,72.2,30.02,WNW,287,0.0,0.0,86,0.00,,,0.00,Wunderground v.1.15,2013-07-18 12:00:00,
2013-07-18 08:05:00,77.0,72.1,30.02,WNW,287,1.0,1.0,85,0.00,,,0.00,Wunderground v.1.15,2013-07-18 12:05:00,
2013-07-18 08:15:00,78.1,72.2,30.02,West,263,1.0,1.0,82,0.00,,,0.00,Wunderground v.1.15,2013-07-18 12:15:00,
2013-07-18 08:20:00,78.6,72.3,30.02,West,267,1.0,4.0,81,0.00,,,0.00,Wunderground v.1.15,2013-07-18 12:20:00,
2013-07-18 08:25:00,79.0,72.3,30.02,West,281,2.0,4.0,80,0.00,,,0.00,Wunderground v.1.15,2013-07-18 12:25:00,
2013-07-18 08:35:00,79.9,72.0,30.02,WNW,288,1.0,3.0,77,0.00,,,0.00,Wunderground v.1.15,2013-07-18 12:35:00,
2013-07-18 08:40:00,80.5,72.6,30.02,West,275,1.0,1.0,77,0.00,,,0.00,Wunderground v.1.15,2013-07-18 12:40:00,
2013-07-18 08:45:00,81.1,72.8,30.02,West,275,0.0,1.0,76,0.00,,,0.00,Wunderground v.1.15,2013-07-18 12:45:00,
2013-07-18 08:55:00,82.0,72.9,30.02,West,275,0.0,3.0,74,0.00,,,0.00,Wunderground v.1.15,2013-07-18 12:55:00,
2013-07-18 09:00:00,82.2,73.1,30.02,West,261,1.0,1.0,74,0.00,,,0.00,Wunderground v.1.15,2013-07-18 13:00:00,
2013-07-18 09:05:00,82.4,72.9,30.02,WSW,248,1.0,3.0,73,0.00,,,0.00,Wunderground v.1.15,2013-07-18 13:05:00,
2013-07-18 09:15:00,83.0,73.0,30.02,NNW,337,1.0,1.0,72,0.00,,,0.00,Wunderground v.1.15,2013-07-18 13:15:00,
2013-07-18 09:20:00,83.6,72.8,30.02,West,263,0.0,0.0,70,0.00,,,0.00,Wunderground v.1.15,2013-07-18 13:20:00,
2013-07-18 09:25:00,84.0,73.2,30.02,West,267,0.0,4.0,70,0.00,,,0.00,Wunderground v.1.15,2013-07-18 13:25:00,
2013-07-18 09:35:00,84.7,73.4,30.01,West,281,1.0,1.0,69,0.00,,,0.00,Wunderground v.1.15,2013-07-18 13:35:00,
2013-07-18 09:40:00,84.9,73.2,30.01,WNW,298,1.0,1.0,68,0.00,,,0.00,Wunderground v.1.15,2013-07-18 13:40:00,
2013-07-18 09:45:00,85.1,72.5,30.01,NW,312,1.0,1.0,66,0.00,,,0.00,Wunderground v.1.15,2013-07-18 13:45:00,
2013-07-18 09:50:00,85.3,73.1,30.01,West,271,1.0,2.0,67,0.00,,,0.00,Wunderground v.1.15,2013-07-18 13:50:00,
2013-07-18 10:00:00,86.3,73.6,30.01,WSW,258,0.0,0.0,66,0.00,,,0.00,Wunderground v.1.15,2013-07-18 14:00:00,
2013-07-18 10:05:00,87.0,72.9,30.01,West,260,0.0,0.0,63,0.00,,,0.00,Wunderground v.1.15,2013-07-18 14:05:00,
2013-07-18 10:15:00,87.0,73.8,30.00,West,281,1.0,5.0,65,0.00,,,0.00,Wunderground v.1.15,2013-07-18 14:15:00,
2013-07-18 10:25:00,87.2,72.6,30.00,WNW,298,1.0,2.0,62,0.00,,,0.00,Wunderground v.1.15,2013-07-18 14:25:00,
2013-07-18 10:30:00,87.8,73.2,30.01,WNW,298,0.0,0.0,62,0.00,,,0.00,Wunderground v.1.15,2013-07-18 14:30:00,
2013-07-18 10:35:00,88.2,72.6,30.01,WNW,287,1.0,2.0,60,0.00,,,0.00,Wunderground v.1.15,2013-07-18 14:35:00,
2013-07-18 10:40:00,88.0,71.9,30.01,WNW,285,2.0,2.0,59,0.00,,,0.00,Wunderground v.1.15,2013-07-18 14:40:00,
2013-07-18 10:50:00,88.4,72.2,30.01,SSW,212,1.0,1.0,59,0.00,,,0.00,Wunderground v.1.15,2013-07-18 14:50:00,
2013-07-18 10:55:00,88.6,71.9,30.01,West,263,1.0,2.0,58,0.00,,,0.00,Wunderground v.1.15,2013-07-18 14:55:00,
2013-07-18 11:05:00,89.0,71.3,30.01,West,265,2.0,2.0,56,0.00,,,0.00,Wunderground v.1.15,2013-07-18 15:05:00,
2013-07-18 11:15:00,89.5,72.3,30.00,South,191,1.0,3.0,57,0.00,,,0.00,Wunderground v.1.15,2013-07-18 15:15:00,
2013-07-18 11:20:00,90.1,71.8,30.00,WSW,258,2.0,7.0,55,0.00,,,0.00,Wunderground v.1.15,2013-07-18 15:20:00,
2013-07-18 11:25:00,90.3,72.5,30.00,West,263,1.0,7.0,56,0.00,,,0.00,Wunderground v.1.15,2013-07-18 15:25:00,
2013-07-18 11:35:00,90.3,70.8,30.00,South,182,2.0,5.0,53,0.00,,,0.00,Wunderground v.1.15,2013-07-18 15:35:00,
2013-07-18 11:40:00,90.5,71.6,30.00,NNW,333,2.0,2.0,54,0.00,,,0.00,Wunderground v.1.15,2013-07-18 15:40:00,
2013-07-18 11:45:00,90.3,71.9,30.00,WSW,251,1.0,2.0,55,0.00,,,0.00,Wunderground v.1.15,2013-07-18 15:45:00,
2013-07-18 11:55:00,90.7,71.8,30.00,SW,232,2.0,3.0,54,0.00,,,0.00,Wunderground v.1.15,2013-07-18 15:55:00,
2013-07-18 12:00:00,91.0,70.9,30.00,SW,219,2.0,5.0,52,0.00,,,0.00,Wunderground v.1.15,2013-07-18 16:00:00,
2013-07-18 12:05:00,91.2,71.1,30.00,SE,131,2.0,5.0,52,0.00,,,0.00,Wunderground v.1.15,2013-07-18 16:05:00,
2013-07-18 12:15:00,91.4,69.0,30.00,West,264,3.0,3.0,48,0.00,,,0.00,Wunderground v.1.15,2013-07-18 16:15:00,
2013-07-18 12:20:00,91.4,70.1,30.00,West,264,3.0,3.0,50,0.00,,,0.00,Wunderground v.1.15,2013-07-18 16:20:00,
2013-07-18 12:30:00,92.1,69.6,29.99,WNW,284,1.0,1.0,48,0.00,,,0.00,Wunderground v.1.15,2013-07-18 16:30:00,
2013-07-18 12:35:00,91.4,68.3,29.99,West,268,3.0,7.0,47,0.00,,,0.00,Wunderground v.1.15,2013-07-18 16:35:00,
2013-07-18 12:40:00,91.4,69.0,29.99,West,277,4.0,4.0,48,0.00,,,0.00,Wunderground v.1.15,2013-07-18 16:40:00,
2013-07-18 12:50:00,92.3,69.8,29.99,West,270,2.0,7.0,48,0.00,,,0.00,Wunderground v.1.15,2013-07-18 16:50:00,
2013-07-18 12:55:00,91.8,68.7,29.99,West,268,3.0,7.0,47,0.00,,,0.00,Wunderground v.1.15,2013-07-18 16:55:00,
2013-07-18 13:00:00,91.8,69.3,29.99,West,278,4.0,4.0,48,0.00,,,0.00,Wunderground v.1.15,2013-07-18 17:00:00,
2013-07-18 13:05:00,92.3,68.5,29.99,West,277,3.0,4.0,46,0.00,,,0.00,Wunderground v.1.15,2013-07-18 17:05:00,
2013-07-18 13:15:00,91.4,69.0,29.99,West,278,4.0,12.0,48,0.00,,,0.00,Wunderground v.1.15,2013-07-18 17:15:00,
2013-07-18 13:25:00,91.4,70.1,29.99,WNW,294,4.0,4.0,50,0.00,,,0.00,Wunderground v.1.15,2013-07-18 17:25:00,
2013-07-18 13:30:00,91.2,68.8,29.98,West,275,6.0,6.0,48,0.00,,,0.00,Wunderground v.1.15,2013-07-18 17:30:00,
2013-07-18 13:35:00,91.6,68.5,29.98,SSW,210,5.0,6.0,47,0.00,,,0.00,Wunderground v.1.15,2013-07-18 17:35:00,
2013-07-18 13:45:00,92.1,69.6,29.97,WNW,282,4.0,4.0,48,0.00,,,0.00,Wunderground v.1.15,2013-07-18 17:45:00,
2013-07-18 13:50:00,91.8,68.7,29.97,WSW,243,4.0,7.0,47,0.00,,,0.00,Wunderground v.1.15,2013-07-18 17:50:00,
2013-07-18 13:55:00,91.4,69.6,29.97,WNW,284,5.0,7.0,49,0.00,,,0.00,Wunderground v.1.15,2013-07-18 17:55:00,
2013-07-18 14:05:00,91.2,70.0,29.97,WNW,298,4.0,5.0,50,0.00,,,0.00,Wunderground v.1.15,2013-07-18 18:05:00,
2013-07-18 14:15:00,91.2,69.4,29.96,WNW,298,4.0,5.0,49,0.00,,,0.00,Wunderground v.1.15,2013-07-18 18:15:00,
2013-07-18 14:20:00,91.8,68.7,29.96,SSW,210,4.0,5.0,47,0.00,,,0.00,Wunderground v.1.15,2013-07-18 18:20:00,
2013-07-18 14:25:00,91.8,67.4,29.96,SW,234,5.0,5.0,45,0.00,,,0.00,Wunderground v.1.15,2013-07-18 18:25:00,
2013-07-18 14:30:00,91.8,67.4,29.96,WNW,291,5.0,7.0,45,0.00,,,0.00,Wunderground v.1.15,2013-07-18 18:30:00,
2013-07-18 14:40:00,92.3,68.5,29.96,SSW,205,3.0,3.0,46,0.00,,,0.00,Wunderground v.1.15,2013-07-18 18:40:00,
2013-07-18 14:45:00,92.3,68.5,29.96,WNW,282,4.0,4.0,46,0.00,,,0.00,Wunderground v.1.15,2013-07-18 18:45:00,
2013-07-18 14:50:00,92.3,68.5,29.96,North,0,5.0,10.0,46,0.00,,,0.00,Wunderground v.1.15,2013-07-18 18:50:00,
2013-07-18 14:55:00,91.6,69.1,29.96,WSW,257,5.0,10.0,48,0.00,,,0.00,Wunderground v.1.15,2013-07-18 18:55:00,
2013-07-18 15:05:00,91.2,69.4,29.96,NW,320,5.0,6.0,49,0.00,,,0.00,Wunderground v.1.15,2013-07-18 19:05:00,
2013-07-18 15:15:00,91.0,69.8,29.96,NW,319,6.0,6.0,50,0.00,,,0.00,Wunderground v.1.15,2013-07-18 19:15:00,
2013-07-18 15:20:00,91.2,68.8,29.96,North,357,5.0,5.0,48,0.00,,,0.00,Wunderground v.1.15,2013-07-18 19:20:00,
2013-07-18 15:25:00,91.2,69.4,29.96,WNW,299,5.0,5.0,49,0.00,,,0.00,Wunderground v.1.15,2013-07-18 19:25:00,
2013-07-18 15:30:00,91.2,68.2,29.95,WNW,295,6.0,6.0,47,0.00,,,0.00,Wunderground v.1.15,2013-07-18 19:30:00,
2013-07-18 15:40:00,91.4,69.0,29.95,West,267,5.0,7.0,48,0.00,,,0.00,Wunderground v.1.15,2013-07-18 19:40:00,
2013-07-18 15:45:00,91.4,69.6,29.94,WSW,253,5.0,11.0,49,0.00,,,0.00,Wunderground v.1.15,2013-07-18 19:45:00,
2013-07-18 15:50:00,91.4,68.3,29.94,NW,319,5.0,5.0,47,0.00,,,0.00,Wunderground v.1.15,2013-07-18 19:50:00,
2013-07-18 16:00:00,92.1,69.6,29.94,NW,325,3.0,3.0,48,0.00,,,0.00,Wunderground v.1.15,2013-07-18 20:00:00,
2013-07-18 16:05:00,92.5,70.0,29.94,WNW,282,3.0,8.0,48,0.00,,,0.00,Wunderground v.1.15,2013-07-18 20:05:00,
2013-07-18 16:15:00,91.4,69.6,29.93,West,274,6.0,6.0,49,0.00,,,0.00,Wunderground v.1.15,2013-07-18 20:15:00,
2013-07-18 16:20:00,91.2,69.4,29.93,SW,217,6.0,6.0,49,0.00,,,0.00,Wunderground v.1.15,2013-07-18 20:20:00,
2013-07-18 16:25:00,91.8,69.3,29.93,SW,226,5.0,6.0,48,0.00,,,0.00,Wunderground v.1.15,2013-07-18 20:25:00,
2013-07-18 16:35:00,92.3,69.2,29.92,WNW,287,4.0,6.0,47,0.00,,,0.00,Wunderground v.1.15,2013-07-18 20:35:00,
2013-07-18 16:45:00,91.8,68.1,29.92,West,274,5.0,6.0,46,0.00,,,0.00,Wunderground v.1.15,2013-07-18 20:45:00,
2013-07-18 16:50:00,91.4,68.3,29.92,West,270,6.0,10.0,47,0.00,,,0.00,Wunderground v.1.15,2013-07-18 20:50:00,
2013-07-18 17:00:00,91.2,67.5,29.91,West,270,6.0,8.0,46,0.00,,,0.00,Wunderground v.1.15,2013-07-18 21:00:00,
2013-07-18 17:05:00,91.2,67.5,29.91,SW,226,5.0,8.0,46,0.00,,,0.00,Wunderground v.1.15,2013-07-18 21:05:00,
2013-07-18 17:15:00,92.1,67.7,29.91,West,278,3.0,6.0,45,0.00,,,0.00,Wunderground v.1.15,2013-07-18 21:15:00,
2013-07-18 17:20:00,92.7,68.2,29.91,West,265,2.0,3.0,45,0.00,,,0.00,Wunderground v.1.15,2013-07-18 21:20:00,
2013-07-18 17:25:00,92.1,68.3,29.91,WSW,250,4.0,4.0,46,0.00,,,0.00,Wunderground v.1.15,2013-07-18 21:25:00,
2013-07-18 17:30:00,92.1,67.7,29.90,NNW,330,4.0,4.0,45,0.00,,,0.00,Wunderground v.1.15,2013-07-18 21:30:00,
2013-07-18 17:40:00,91.6,67.3,29.90,WNW,292,4.0,4.0,45,0.00,,,0.00,Wunderground v.1.15,2013-07-18 21:40:00,
2013-07-18 17:45:00,91.8,66.8,29.89,West,278,3.0,4.0,44,0.00,,,0.00,Wunderground v.1.15,2013-07-18 21:45:00,
2013-07-18 17:55:00,91.4,67.1,29.89,WSW,257,6.0,6.0,45,0.00,,,0.00,Wunderground v.1.15,2013-07-18 21:55:00,
2013-07-18 18:00:00,91.4,67.7,29.89,South,184,4.0,4.0,46,0.00,,,0.00,Wunderground v.1.15,2013-07-18 22:00:00,
2013-07-18 18:05:00,91.6,67.3,29.89,South,184,4.0,9.0,45,0.00,,,0.00,Wunderground v.1.15,2013-07-18 22:05:00,
2013-07-18 18:15:00,91.4,67.7,29.88,NW,313,4.0,5.0,46,0.00,,,0.00,Wunderground v.1.15,2013-07-18 22:15:00,
2013-07-18 18:20:00,91.4,68.3,29.88,West,260,4.0,11.0,47,0.00,,,0.00,Wunderground v.1.15,2013-07-18 22:20:00,
2013-07-18 18:30:00,91.2,68.2,29.88,WSW,251,4.0,8.0,47,0.00,,,0.00,Wunderground v.1.15,2013-07-18 22:30:00,
2013-07-18 18:35:00,91.0,68.0,29.88,West,261,4.0,8.0,47,0.00,,,0.00,Wunderground v.1.15,2013-07-18 22:35:00,
2013-07-18 18:40:00,90.7,68.3,29.88,SW,234,6.0,8.0,48,0.00,,,0.00,Wunderground v.1.15,2013-07-18 22:40:00,
2013-07-18 18:45:00,90.5,68.1,29.87,West,272,6.0,8.0,48,0.00,,,0.00,Wunderground v.1.15,2013-07-18 22:45:00,
2013-07-18 18:55:00,90.7,68.3,29.87,South,189,3.0,11.0,48,0.00,,,0.00,Wunderground v.1.15,2013-07-18 22:55:00,
2013-07-18 19:00:00,90.5,68.1,29.86,SW,224,4.0,4.0,48,0.00,,,0.00,Wunderground v.1.15,2013-07-18 23:00:00,
2013-07-18 19:05:00,90.5,68.1,29.86,SSW,212,4.0,6.0,48,0.00,,,0.00,Wunderground v.1.15,2013-07-18 23:05:00,
2013-07-18 19:15:00,90.3,67.9,29.86,SSW,205,3.0,4.0,48,0.00,,,0.00,Wunderground v.1.15,2013-07-18 23:15:00,
2013-07-18 19:20:00,90.1,67.2,29.86,WSW,239,4.0,4.0,47,0.00,,,0.00,Wunderground v.1.15,2013-07-18 23:20:00,
2013-07-18 19:30:00,89.9,68.2,29.86,WSW,251,5.0,5.0,49,0.00,,,0.00,Wunderground v.1.15,2013-07-18 23:30:00,
2013-07-18 19:35:00,89.7,67.4,29.86,SW,217,6.0,6.0,48,0.00,,,0.00,Wunderground v.1.15,2013-07-18 23:35:00,
2013-07-18 19:40:00,89.5,68.4,29.86,WSW,251,5.0,5.0,50,0.00,,,0.00,Wunderground v.1.15,2013-07-18 23:40:00,
2013-07-18 19:50:00,89.3,68.2,29.85,SSW,206,3.0,3.0,50,0.00,,,0.00,Wunderground v.1.15,2013-07-18 23:50:00,
2013-07-18 19:55:00,89.0,68.5,29.85,SSW,206,3.0,3.0,51,0.00,,,0.00,Wunderground v.1.15,2013-07-18 23:55:00,
2013-07-18 20:00:00,89.0,68.5,29.85,West,261,2.0,6.0,51,0.00,,,0.00,Wunderground v.1.15,2013-07-19 00:00:00,
2013-07-18 20:05:00,88.8,68.3,29.85,SW,215,2.0,6.0,51,0.00,,,0.00,Wunderground v.1.15,2013-07-19 00:05:00,
2013-07-18 20:15:00,88.6,68.7,29.85,SSW,205,2.0,5.0,52,0.00,,,0.00,Wunderground v.1.15,2013-07-19 00:15:00,
2013-07-18 20:20:00,88.4,68.5,29.85,SSW,213,3.0,3.0,52,0.00,,,0.00,Wunderground v.1.15,2013-07-19 00:20:00,
2013-07-18 20:25:00,88.4,68.5,29.85,West,263,2.0,3.0,52,0.00,,,0.00,Wunderground v.1.15,2013-07-19 00:25:00,
2013-07-18 20:35:00,88.0,68.7,29.84,SSW,206,3.0,3.0,53,0.00,,,0.00,Wunderground v.1.15,2013-07-19 00:35:00,
2013-07-18 20:40:00,87.8,68.5,29.84,North,0,3.0,3.0,53,0.00,,,0.00,Wunderground v.1.15,2013-07-19 00:40:00,
2013-07-18 20:50:00,87.4,68.7,29.84,SW,217,2.0,2.0,54,0.00,,,0.00,Wunderground v.1.15,2013-07-19 00:50:00,
2013-07-18 20:55:00,87.2,68.5,29.84,SW,220,3.0,3.0,54,0.00,,,0.00,Wunderground v.1.15,2013-07-19 00:55:00,
2013-07-18 21:00:00,87.2,69.1,29.83,SSW,203,3.0,4.0,55,0.00,,,0.00,Wunderground v.1.15,2013-07-19 01:00:00,
2013-07-18 21:05:00,87.0,68.9,29.83,SSW,212,2.0,6.0,55,0.00,,,0.00,Wunderground v.1.15,2013-07-19 01:05:00,
2013-07-18 21:15:00,86.5,68.9,29.83,WSW,254,2.0,2.0,56,0.00,,,0.00,Wunderground v.1.15,2013-07-19 01:15:00,
2013-07-18 21:25:00,86.1,69.1,29.83,SSW,210,2.0,2.0,57,0.00,,,0.00,Wunderground v.1.15,2013-07-19 01:25:00,
2013-07-18 21:30:00,85.9,68.9,29.83,SSW,210,2.0,2.0,57,0.00,,,0.00,Wunderground v.1.15,2013-07-19 01:30:00,
2013-07-18 21:35:00,85.7,69.2,29.83,West,274,1.0,2.0,58,0.00,,,0.00,Wunderground v.1.15,2013-07-19 01:35:00,
2013-07-18 21:40:00,85.7,69.2,29.83,SSW,200,2.0,2.0,58,0.00,,,0.00,Wunderground v.1.15,2013-07-19 01:40:00,
2013-07-18 21:50:00,85.3,68.8,29.83,NW,304,2.0,3.0,58,0.00,,,0.00,Wunderground v.1.15,2013-07-19 01:50:00,
2013-07-18 21:55:00,85.3,68.8,29.83,SSW,196,1.0,3.0,58,0.00,,,0.00,Wunderground v.1.15,2013-07-19 01:55:00,
2013-07-18 22:00:00,85.1,68.7,29.83,SSW,208,2.0,2.0,58,0.00,,,0.00,Wunderground v.1.15,2013-07-19 02:00:00,
2013-07-18 22:05:00,84.9,68.5,29.83,SSW,206,2.0,3.0,58,0.00,,,0.00,Wunderground v.1.15,2013-07-19 02:05:00,
2013-07-18 22:15:00,84.7,68.8,29.83,SW,217,2.0,2.0,59,0.00,,,0.00,Wunderground v.1.15,2013-07-19 02:15:00,
2013-07-18 22:20:00,84.5,68.6,29.83,WSW,243,2.0,2.0,59,0.00,,,0.00,Wunderground v.1.15,2013-07-19 02:20:00,
2013-07-18 22:25:00,84.3,68.4,29.83,South,181,2.0,5.0,59,0.00,,,0.00,Wunderground v.1.15,2013-07-19 02:25:00,
2013-07-18 22:30:00,84.3,68.4,29.83,SSW,200,2.0,5.0,59,0.00,,,0.00,Wunderground v.1.15,2013-07-19 02:30:00,
2013-07-18 22:40:00,84.1,68.2,29.83,SSW,193,2.0,4.0,59,0.00,,,0.00,Wunderground v.1.15,2013-07-19 02:40:00,
2013-07-18 22:45:00,84.0,68.6,29.84,SSW,202,2.0,10.0,60,0.00,,,0.00,Wunderground v.1.15,2013-07-19 02:45:00,
2013-07-18 22:50:00,83.8,68.4,29.84,SW,220,2.0,2.0,60,0.00,,,0.00,Wunderground v.1.15,2013-07-19 02:50:00,
2013-07-18 22:55:00,83.8,68.4,29.84,SSW,206,2.0,2.0,60,0.00,,,0.00,Wunderground v.1.15,2013-07-19 02:55:00,
2013-07-18 23:05:00,83.4,68.5,29.84,SSW,206,1.0,2.0,61,0.00,,,0.00,Wunderground v.1.15,2013-07-19 03:05:00,
2013-07-18 23:15:00,83.2,68.8,29.84,West,260,1.0,3.0,62,0.00,,,0.00,Wunderground v.1.15,2013-07-19 03:15:00,
2013-07-18 23:20:00,83.0,68.6,29.84,West,271,2.0,3.0,62,0.00,,,0.00,Wunderground v.1.15,2013-07-19 03:20:00,
2013-07-18 23:25:00,82.8,68.4,29.84,SSW,196,2.0,3.0,62,0.00,,,0.00,Wunderground v.1.15,2013-07-19 03:25:00,
2013-07-18 23:35:00,82.6,68.7,29.84,West,265,0.0,1.0,63,0.00,,,0.00,Wunderground v.1.15,2013-07-19 03:35:00,
2013-07-18 23:40:00,82.4,68.5,29.84,West,265,0.0,0.0,63,0.00,,,0.00,Wunderground v.1.15,2013-07-19 03:40:00,
2013-07-18 23:45:00,82.4,69.0,29.84,WSW,243,0.0,0.0,64,0.00,,,0.00,Wunderground v.1.15,2013-07-19 03:45:00,
2013-07-18 23:50:00,82.2,68.8,29.84,West,274,0.0,0.0,64,0.00,,,0.00,Wunderground v.1.15,2013-07-19 03:50:00,